User: anonymous   Login
Location: Elstree
(51.6403°N, 0.2969°W)
Time: 15:47:53
(UTC+00:00)
Language:

Cosmos 1378 - Orbit

View from above orbital plane
View from above orbital plane
View from above satellite
View from above satellite

Ground track
Ground track

The orbit data is extracted from the following two-line orbital elements,

1 13271U 82059A   21129.28064087  .00000749  00000-0  29870-4 0  9998
2 13271  82.4669 225.7439 0006924  12.5073 347.6334 15.23605450126103
Epoch (UTC): 09 May 2021 06:44:07
Eccentricity: 0.0006924
inclination: 82.4669°
perigee height: 490 km
apogee height: 500 km
right ascension of ascending node: 225.7439°
argument of perigee: 12.5073°
revolutions per day: 15.23605450
mean anomaly at epoch: 347.6334°
orbit number at epoch: 12610

The dashed part of the orbit path shows where the satellite is in the earth's shadow,  

DLR